Home   Weather   Genoa   Past weeks

Flag for Italy Past Weather in Genoa, Italy — Yesterday and Last 2 Weeks

Now
81 °F

Scattered clouds.


Feels Like: 81 °F
Forecast: 70 / 85 °F
Wind: 7 mph from North

Location: Genova / Sestri

Current Time: Aug 30, 2016 at 1:15:31 PM

Latest Report: Aug 30, 2016 at 12:20 PM


Visibility: N/A

Pressure: 30.09 "Hg

Humidity: 51%

Dew Point: 61 °F

Location of GenoaLocation

Past Weather in Genoa — Graph

°F

Genoa Temperature Yesterday

Maximum temperature yesterday: 81 °F (at 1:20 PM)
Minimum temperature yesterday: 72 °F (at 5:50 AM)
Average temperature yesterday: 76 °F

High & Low Weather Summary for the Past Weeks

 TemperatureHumidityPressure
High95 °F (Aug 25, 4:50 PM)83% (Aug 17, 8:50 PM)30.24 "Hg (Aug 17, 8:50 PM)
Low70 °F (Aug 16, 5:20 AM)18% (Aug 22, 4:20 PM)29.80 "Hg (Aug 19, 4:20 AM)
Average78 °F61%30.02 "Hg
* Reported Aug 15 11:20 AM — Aug 30 11:50 AM, Genoa, Weather by CustomWeather, © 2016

Note: Actual official high and low records may vary slightly from our data, if they occured in-between our weather recording intervals... More about our weather records

Advertising

Genoa Weather History for the Previous 24 Hours

Scroll right to see more
 ConditionsComfort  
Time TempWeatherWind HumidityBarometerVisibility
11:50 AM
Tue, Aug 30
77 °FScattered clouds.7 mph61%30.09 "HgN/A
11:20 AM77 °FPartly sunny.9 mph61%30.07 "HgN/A
10:50 AM77 °FPartly sunny.10 mph57%30.07 "HgN/A
10:20 AM77 °FPartly sunny.9 mph57%30.07 "HgN/A
9:50 AM75 °FPartly sunny.10 mph61%30.07 "HgN/A
9:20 AM77 °FScattered clouds.10 mph57%30.04 "HgN/A
8:50 AM77 °FScattered clouds.6 mph57%30.04 "HgN/A
8:20 AM75 °FScattered clouds.6 mph61%30.01 "HgN/A
7:50 AM75 °FPartly sunny.13 mph57%30.01 "HgN/A
7:20 AM75 °FPassing clouds.14 mph57%30.01 "HgN/A
6:50 AM75 °FPassing clouds.5 mph57%30.01 "HgN/A
6:20 AM77 °FPassing clouds.2 mph51%30.01 "HgN/A
5:50 AM75 °FPassing clouds.6 mph57%30.01 "HgN/A
5:20 AM75 °FPassing clouds.12 mph54%30.01 "HgN/A
4:50 AM75 °FPassing clouds.13 mph54%29.98 "HgN/A
4:20 AM75 °FPassing clouds.9 mph57%30.01 "HgN/A
3:50 AM75 °FLight rain. Passing clouds.6 mph69%29.98 "HgN/A
3:20 AM75 °FLight rain. Passing clouds.8 mph74%30.01 "HgN/A
2:50 AM75 °FThundershowers. Passing clouds.2 mph74%30.01 "HgN/A
2:20 AM75 °FThundershowers. Passing clouds.No wind74%30.01 "HgN/A
1:50 AM75 °FPassing clouds.3 mph78%30.01 "HgN/A
1:20 AM75 °FPassing clouds.5 mph74%30.01 "HgN/A
12:50 AM75 °FClear.5 mph78%30.01 "Hg10 mi
12:20 AM75 °FPassing clouds.3 mph78%30.01 "HgN/A
11:50 PM
Mon, Aug 29
77 °FPassing clouds.3 mph79%30.01 "HgN/A
11:20 PM75 °FPassing clouds.8 mph83%30.01 "HgN/A
10:50 PM75 °FPassing clouds.6 mph83%30.01 "HgN/A
10:20 PM75 °FPassing clouds.6 mph83%30.01 "HgN/A
9:50 PM75 °FPassing clouds.7 mph83%29.98 "HgN/A
9:20 PM77 °FPassing clouds.6 mph79%29.98 "HgN/A
8:50 PM77 °FPartly sunny.5 mph79%29.98 "HgN/A
8:20 PM77 °FPartly sunny.5 mph79%29.98 "HgN/A
7:50 PM77 °FScattered clouds.5 mph79%29.95 "HgN/A
7:20 PM77 °FScattered clouds.6 mph79%29.95 "HgN/A
6:50 PM77 °FScattered clouds.6 mph79%29.98 "HgN/A
6:20 PM79 °FScattered clouds.6 mph74%29.98 "HgN/A
5:50 PM79 °FScattered clouds.6 mph74%29.98 "HgN/A
5:20 PM79 °FScattered clouds.6 mph74%29.98 "HgN/A
4:50 PM79 °FScattered clouds.6 mph74%29.98 "HgN/A
4:20 PM81 °FScattered clouds.7 mph70%29.98 "HgN/A
3:50 PM79 °FBroken clouds.6 mph79%30.01 "HgN/A
3:20 PM79 °FBroken clouds.6 mph79%30.01 "HgN/A
2:50 PM79 °FBroken clouds.9 mph79%30.01 "HgN/A
2:20 PM79 °FPartly sunny.10 mph79%30.01 "HgN/A
1:50 PM79 °FPartly sunny.12 mph74%30.01 "HgN/A
1:20 PM81 °FPartly sunny.9 mph70%30.04 "HgN/A
Weather by CustomWeather, © 2016

See weather overviewHow to use our weather pages